Location: Unspecified
(34.1750°S, 150.8048°E)
Time: 18:11:45
(UTC+11:00)

ISS - Visible Passes

Search period start: 23 October 2018 00:00
Search period end: 02 November 2018 00:00
Orbit: 403 x 408 km, 51.6° (Epoch: 23 October)

Date Brightness Start Highest point End Pass type
(mag) Time Alt. Az. Time Alt. Az. Time Alt. Az.
23 Oct -0.7 20:58:25 10° WSW 21:00:29 15° SSW 21:02:33 10° S visible
24 Oct -1.4 20:05:30 10° W 20:08:19 25° SW 20:11:09 10° SSE visible
26 Oct -0.7 19:59:28 10° WSW 20:01:06 13° SSW 20:02:44 10° S visible
